Location: Trebic
(49.2170°N, 15.8830°E)
Time: 10:21:01
(UTC+02:00)

Transit 2A Rocket - Pass Details

Date: 01 August 2019
Orbit: 590 x 913 km, 66.7° (Epoch: 21 August)

Event Time Altitude Azimuth Distance (km) Brightness Sun altitude
Rises 01:15:28 0° 199° (SSW) 3,504 - -22.6°
Reaches altitude 10° 01:18:04 10° 196° (SSW) 2,544 - -22.6°
Exits shadow 01:22:40 47° 161° (SSE) 1,118 5.4 -22.5°
Maximum altitude 01:23:50 56° 119° (ESE) 1,004 5.4 -22.5°
Drops below altitude 10° 01:29:14 10° 43° (NE) 2,384 8.3 -22.4°
Sets 01:31:36 0° 39° (NE) 3,267 9.2 -22.3°
